Time,TemperatureF,DewpointF,PressureIn,WindDirection,WindDirectionDegrees,WindSpeedMPH,WindSpeedGustMPH,Humidity,HourlyPrecipIn,Conditions,Clouds,dailyrainin,SoftwareType,DateUTC
2013-09-20 00:02:00,73.1,68.0,29.86,WSW,248,5.3,6.9,84,0.00,,,0.00,WUHU216HW,2013-09-20 05:02:00,
2013-09-20 00:07:00,72.7,67.6,29.87,WSW,248,4.2,6.9,84,0.00,,,0.00,WUHU216HW,2013-09-20 05:07:00,
2013-09-20 00:12:00,72.0,68.0,29.87,WSW,248,2.7,6.0,87,0.11,,,0.11,WUHU216HW,2013-09-20 05:12:00,
2013-09-20 00:17:00,71.3,67.2,29.87,NW,315,2.0,6.0,87,0.20,,,0.20,WUHU216HW,2013-09-20 05:17:00,
2013-09-20 00:22:00,70.7,67.3,29.87,SW,216,1.1,2.9,89,0.25,,,0.25,WUHU216HW,2013-09-20 05:22:00,
2013-09-20 00:27:00,70.4,66.6,29.87,SW,232,1.8,2.5,88,0.26,,,0.26,WUHU216HW,2013-09-20 05:27:00,
2013-09-20 00:32:00,70.2,67.1,29.87,SW,225,3.1,3.4,90,0.27,,,0.27,WUHU216HW,2013-09-20 05:32:00,
2013-09-20 00:37:00,70.0,67.0,29.87,SW,225,1.7,3.4,90,0.29,,,0.29,WUHU216HW,2013-09-20 05:37:00,
2013-09-20 00:42:00,69.8,66.8,29.87,WSW,248,3.4,3.4,90,0.30,,,0.30,WUHU216HW,2013-09-20 05:42:00,
2013-09-20 00:47:00,69.7,66.9,29.86,WSW,239,1.5,3.4,91,0.32,,,0.32,WUHU216HW,2013-09-20 05:47:00,
2013-09-20 00:52:00,69.5,66.7,29.86,SW,225,1.1,4.0,91,0.33,,,0.33,WUHU216HW,2013-09-20 05:52:00,
2013-09-20 00:57:00,69.5,66.7,29.86,WNW,293,1.8,4.0,91,0.34,,,0.34,WUHU216HW,2013-09-20 05:57:00,
2013-09-20 01:02:00,69.3,66.5,29.85,WSW,248,0.4,2.9,91,0.35,,,0.35,WUHU216HW,2013-09-20 06:02:00,
2013-09-20 01:07:00,69.3,66.5,29.85,WSW,252,1.0,1.8,91,0.37,,,0.38,WUHU216HW,2013-09-20 06:07:00,
2013-09-20 01:12:00,69.3,66.5,29.86,SSW,203,2.5,2.5,91,0.22,,,0.40,WUHU216HW,2013-09-20 06:12:00,
2013-09-20 01:17:00,69.1,66.3,29.85,East,90,0.4,2.5,91,0.20,,,0.42,WUHU216HW,2013-09-20 06:17:00,
2013-09-20 01:22:00,69.1,66.3,29.85,SW,215,1.2,2.5,91,0.19,,,0.44,WUHU216HW,2013-09-20 06:22:00,
2013-09-20 01:27:00,69.1,66.3,29.85,SW,225,0.9,1.3,91,0.20,,,0.46,WUHU216HW,2013-09-20 06:27:00,
2013-09-20 01:32:00,68.9,66.2,29.84,West,270,0.8,1.3,91,0.20,,,0.47,WUHU216HW,2013-09-20 06:32:00,
2013-09-20 01:37:00,68.8,66.0,29.84,SW,225,0.4,1.3,91,0.20,,,0.49,WUHU216HW,2013-09-20 06:37:00,
2013-09-20 01:42:00,68.8,66.0,29.84,SW,225,0.6,0.7,91,0.20,,,0.50,WUHU216HW,2013-09-20 06:42:00,
2013-09-20 01:47:00,68.8,66.3,29.84,SW,234,1.9,2.2,92,0.19,,,0.51,WUHU216HW,2013-09-20 06:47:00,
2013-09-20 01:52:00,68.8,66.0,29.84,SW,225,0.8,2.2,91,0.19,,,0.52,WUHU216HW,2013-09-20 06:52:00,
2013-09-20 01:57:00,68.6,66.2,29.84,SW,225,0.9,2.0,92,0.20,,,0.54,WUHU216HW,2013-09-20 06:57:00,
2013-09-20 02:02:00,68.6,65.8,29.85,SW,225,0.4,2.0,91,0.20,,,0.55,WUHU216HW,2013-09-20 07:02:00,
2013-09-20 02:07:00,68.6,65.8,29.85,South,180,0.7,1.6,91,0.18,,,0.56,WUHU216HW,2013-09-20 07:07:00,
2013-09-20 02:12:00,68.6,65.8,29.85,ESE,113,0.1,1.6,91,0.18,,,0.58,WUHU216HW,2013-09-20 07:12:00,
2013-09-20 02:17:00,68.4,65.6,29.85,SE,135,0.3,1.1,91,0.17,,,0.60,WUHU216HW,2013-09-20 07:17:00,
2013-09-20 02:22:00,68.4,65.6,29.85,South,180,0.3,0.4,91,0.16,,,0.61,WUHU216HW,2013-09-20 07:22:00,
2013-09-20 02:27:00,68.4,65.6,29.85,SW,236,0.8,1.1,91,0.17,,,0.63,WUHU216HW,2013-09-20 07:27:00,
2013-09-20 02:32:00,68.2,65.4,29.85,SE,135,0.3,1.3,91,0.18,,,0.65,WUHU216HW,2013-09-20 07:32:00,
2013-09-20 02:37:00,68.2,65.4,29.85,SSE,158,0.3,1.3,91,0.17,,,0.66,WUHU216HW,2013-09-20 07:37:00,
2013-09-20 02:42:00,68.0,65.3,29.85,SW,217,0.6,0.7,91,0.17,,,0.67,WUHU216HW,2013-09-20 07:42:00,
2013-09-20 02:47:00,68.0,65.3,29.86,SSW,203,1.1,1.1,91,0.16,,,0.68,WUHU216HW,2013-09-20 07:47:00,
2013-09-20 02:52:00,68.0,65.6,29.85,SW,222,2.3,3.8,92,0.16,,,0.69,WUHU216HW,2013-09-20 07:52:00,
2013-09-20 02:57:00,67.9,65.4,29.86,WNW,288,0.6,3.8,92,0.16,,,0.70,WUHU216HW,2013-09-20 07:57:00,
2013-09-20 03:02:00,67.9,65.4,29.85,WSW,248,1.1,1.1,92,0.14,,,0.70,WUHU216HW,2013-09-20 08:02:00,
2013-09-20 03:07:00,67.9,65.4,29.86,SSW,203,0.4,2.7,92,0.14,,,0.71,WUHU216HW,2013-09-20 08:07:00,
2013-09-20 03:11:00,67.7,65.3,29.86,SSE,158,0.4,2.7,92,0.13,,,0.72,WUHU216HW,2013-09-20 08:11:00,
2013-09-20 03:16:00,67.7,65.3,29.86,SW,225,1.8,1.8,92,0.14,,,0.74,WUHU216HW,2013-09-20 08:16:00,
2013-09-20 03:21:00,67.7,65.5,29.86,WSW,248,1.1,2.5,93,0.12,,,0.74,WUHU216HW,2013-09-20 08:21:00,
2013-09-20 03:26:00,67.7,65.5,29.86,West,270,1.3,2.5,93,0.12,,,0.76,WUHU216HW,2013-09-20 08:26:00,
2013-09-20 03:31:00,67.5,65.3,29.86,SW,225,0.8,1.8,93,0.11,,,0.76,WUHU216HW,2013-09-20 08:31:00,
2013-09-20 03:37:00,67.5,65.3,29.86,WSW,248,0.3,1.8,93,0.11,,,0.77,WUHU216HW,2013-09-20 08:37:00,
2013-09-20 03:41:00,67.5,65.3,29.86,West,267,0.3,0.7,93,0.10,,,0.78,WUHU216HW,2013-09-20 08:41:00,
2013-09-20 03:46:00,67.3,65.2,29.86,WNW,293,0.4,0.7,93,0.11,,,0.79,WUHU216HW,2013-09-20 08:46:00,
2013-09-20 03:51:00,67.3,65.2,29.86,WNW,293,0.2,0.7,93,0.12,,,0.81,WUHU216HW,2013-09-20 08:51:00,
2013-09-20 03:56:00,67.3,65.2,29.85,West,270,0.4,0.9,93,0.11,,,0.81,WUHU216HW,2013-09-20 08:56:00,
2013-09-20 04:01:00,67.3,65.2,29.85,West,270,0.4,1.3,93,0.11,,,0.81,WUHU216HW,2013-09-20 09:01:00,
2013-09-20 04:06:00,67.3,65.2,29.85,West,270,0.4,1.3,93,0.12,,,0.83,WUHU216HW,2013-09-20 09:06:00,
2013-09-20 04:11:00,67.3,65.2,29.85,WNW,293,0.0,0.9,93,0.11,,,0.83,WUHU216HW,2013-09-20 09:11:00,
2013-09-20 04:16:00,67.3,65.2,29.85,WNW,293,0.1,0.2,93,0.09,,,0.83,WUHU216HW,2013-09-20 09:16:00,
2013-09-20 04:21:00,67.5,65.3,29.85,West,270,0.2,0.4,93,0.11,,,0.85,WUHU216HW,2013-09-20 09:21:00,
2013-09-20 04:26:00,67.5,65.3,29.85,West,270,0.0,0.7,93,0.09,,,0.85,WUHU216HW,2013-09-20 09:26:00,
2013-09-20 04:31:00,67.5,65.3,29.84,West,270,0.3,0.9,93,0.09,,,0.85,WUHU216HW,2013-09-20 09:31:00,
2013-09-20 04:36:00,67.3,65.2,29.84,NE,34,1.1,1.8,93,0.09,,,0.86,WUHU216HW,2013-09-20 09:36:00,
2013-09-20 04:41:00,67.3,65.2,29.84,WSW,248,2.0,2.0,93,0.08,,,0.86,WUHU216HW,2013-09-20 09:41:00,
2013-09-20 04:46:00,67.3,65.2,29.84,West,270,0.2,2.0,93,0.08,,,0.87,WUHU216HW,2013-09-20 09:46:00,
2013-09-20 04:51:00,67.3,65.2,29.84,West,270,1.1,1.6,93,0.07,,,0.88,WUHU216HW,2013-09-20 09:51:00,
2013-09-20 04:56:00,67.3,65.2,29.84,SW,225,1.8,1.8,93,0.07,,,0.88,WUHU216HW,2013-09-20 09:56:00,
2013-09-20 05:01:00,67.3,65.2,29.83,SW,225,1.6,1.8,93,0.07,,,0.88,WUHU216HW,2013-09-20 10:01:00,
2013-09-20 05:06:00,67.3,65.2,29.84,SW,225,1.6,1.6,93,0.06,,,0.89,WUHU216HW,2013-09-20 10:06:00,
2013-09-20 05:11:00,67.3,65.2,29.84,WSW,248,1.7,1.8,93,0.06,,,0.89,WUHU216HW,2013-09-20 10:11:00,
2013-09-20 05:16:00,67.3,65.5,29.84,WSW,248,1.2,2.2,94,0.06,,,0.89,WUHU216HW,2013-09-20 10:16:00,
2013-09-20 05:21:00,67.3,65.5,29.84,WSW,248,0.6,2.2,94,0.04,,,0.89,WUHU216HW,2013-09-20 10:21:00,
2013-09-20 05:26:00,67.3,65.5,29.85,SW,225,1.5,1.8,94,0.04,,,0.89,WUHU216HW,2013-09-20 10:26:00,
2013-09-20 05:31:00,67.3,65.5,29.85,WSW,248,1.8,2.0,94,0.05,,,0.90,WUHU216HW,2013-09-20 10:31:00,
2013-09-20 05:36:00,67.3,65.5,29.85,West,270,0.7,2.0,94,0.04,,,0.90,WUHU216HW,2013-09-20 10:36:00,
2013-09-20 05:41:00,67.3,65.2,29.85,SW,225,0.4,1.8,93,0.03,,,0.90,WUHU216HW,2013-09-20 10:41:00,
2013-09-20 05:46:00,67.3,65.5,29.85,SW,225,1.8,1.8,94,0.03,,,0.90,WUHU216HW,2013-09-20 10:46:00,
2013-09-20 05:51:00,67.3,65.5,29.86,SW,225,0.9,1.8,94,0.02,,,0.90,WUHU216HW,2013-09-20 10:51:00,
2013-09-20 05:56:00,67.3,65.2,29.86,SW,225,0.9,1.3,93,0.04,,,0.92,WUHU216HW,2013-09-20 10:56:00,
2013-09-20 06:01:00,67.3,65.2,29.86,SW,225,0.4,0.9,93,0.04,,,0.92,WUHU216HW,2013-09-20 11:01:00,
2013-09-20 06:06:00,67.3,65.2,29.86,SW,225,0.0,0.4,93,0.03,,,0.92,WUHU216HW,2013-09-20 11:06:00,
2013-09-20 06:11:00,67.3,65.2,29.86,SW,225,0.4,0.4,93,0.04,,,0.93,WUHU216HW,2013-09-20 11:11:00,
2013-09-20 06:16:00,67.3,65.2,29.86,SW,225,0.3,0.9,93,0.04,,,0.93,WUHU216HW,2013-09-20 11:16:00,
2013-09-20 06:21:00,67.3,65.2,29.86,SW,225,0.0,0.9,93,0.04,,,0.93,WUHU216HW,2013-09-20 11:21:00,
2013-09-20 06:26:00,67.3,65.2,29.86,SW,225,0.1,0.2,93,0.04,,,0.93,WUHU216HW,2013-09-20 11:26:00,
2013-09-20 06:31:00,67.3,65.2,29.86,SW,225,1.6,1.6,93,0.03,,,0.93,WUHU216HW,2013-09-20 11:31:00,
2013-09-20 06:36:00,67.3,65.2,29.86,WSW,248,0.9,1.6,93,0.03,,,0.93,WUHU216HW,2013-09-20 11:36:00,
2013-09-20 06:41:00,67.3,65.2,29.86,SW,225,0.6,0.9,93,0.04,,,0.94,WUHU216HW,2013-09-20 11:41:00,
2013-09-20 06:46:00,67.3,65.5,29.86,WSW,248,0.7,1.8,94,0.04,,,0.94,WUHU216HW,2013-09-20 11:46:00,
2013-09-20 06:51:00,67.1,65.4,29.86,SW,225,0.3,1.8,94,0.04,,,0.94,WUHU216HW,2013-09-20 11:51:00,
2013-09-20 06:56:00,67.1,65.4,29.86,SW,225,0.0,1.3,94,0.02,,,0.94,WUHU216HW,2013-09-20 11:56:00,
2013-09-20 07:01:00,67.0,65.2,29.86,WSW,248,0.3,0.9,94,0.02,,,0.94,WUHU216HW,2013-09-20 12:01:00,
2013-09-20 07:06:00,67.0,65.2,29.86,WSW,248,0.4,0.9,94,0.03,,,0.95,WUHU216HW,2013-09-20 12:06:00,
2013-09-20 07:11:00,67.0,65.2,29.86,North,0,1.3,1.6,94,0.02,,,0.95,WUHU216HW,2013-09-20 12:11:00,
2013-09-20 07:16:00,67.0,65.2,29.86,NNW,338,1.1,1.6,94,0.02,,,0.95,WUHU216HW,2013-09-20 12:16:00,
2013-09-20 07:21:00,67.0,65.2,29.86,NNW,338,0.0,1.1,94,0.02,,,0.95,WUHU216HW,2013-09-20 12:21:00,
2013-09-20 07:26:00,67.0,65.2,29.86,NNW,338,0.0,0.2,94,0.02,,,0.95,WUHU216HW,2013-09-20 12:26:00,
2013-09-20 07:31:00,67.0,65.2,29.86,NNW,338,0.0,0.2,94,0.03,,,0.96,WUHU216HW,2013-09-20 12:31:00,
2013-09-20 07:37:00,67.0,65.2,29.86,SW,225,0.0,1.1,94,0.03,,,0.96,WUHU216HW,2013-09-20 12:37:00,
2013-09-20 07:42:00,67.0,65.2,29.86,West,270,0.4,1.1,94,0.02,,,0.96,WUHU216HW,2013-09-20 12:42:00,
2013-09-20 07:47:00,67.0,65.2,29.86,West,270,1.1,1.1,94,0.02,,,0.96,WUHU216HW,2013-09-20 12:47:00,
2013-09-20 07:52:00,67.0,65.2,29.86,NNE,13,0.4,1.6,94,0.03,,,0.97,WUHU216HW,2013-09-20 12:52:00,
2013-09-20 07:57:00,67.0,65.2,29.86,NNW,338,0.1,1.6,94,0.03,,,0.97,WUHU216HW,2013-09-20 12:57:00,
2013-09-20 08:02:00,67.0,65.2,29.86,SW,225,0.2,1.1,94,0.03,,,0.97,WUHU216HW,2013-09-20 13:02:00,
2013-09-20 08:07:00,67.0,65.2,29.86,SW,225,0.1,1.1,94,0.02,,,0.97,WUHU216HW,2013-09-20 13:07:00,
2013-09-20 08:12:00,67.0,65.2,29.85,SW,225,0.0,0.4,94,0.02,,,0.97,WUHU216HW,2013-09-20 13:12:00,
2013-09-20 08:17:00,67.0,65.2,29.85,SW,225,0.0,0.4,94,0.03,,,0.98,WUHU216HW,2013-09-20 13:17:00,
2013-09-20 08:22:00,67.0,65.2,29.85,WSW,241,0.6,1.1,94,0.03,,,0.98,WUHU216HW,2013-09-20 13:22:00,
2013-09-20 08:27:00,67.0,65.2,29.85,West,270,0.2,1.1,94,0.03,,,0.98,WUHU216HW,2013-09-20 13:27:00,
2013-09-20 08:32:00,67.0,65.2,29.85,West,270,0.4,0.4,94,0.02,,,0.98,WUHU216HW,2013-09-20 13:32:00,
2013-09-20 08:37:00,67.0,65.2,29.85,NNW,338,0.2,0.4,94,0.02,,,0.98,WUHU216HW,2013-09-20 13:37:00,
2013-09-20 08:42:00,67.0,65.2,29.85,NNW,338,0.3,0.7,94,0.03,,,0.99,WUHU216HW,2013-09-20 13:42:00,
2013-09-20 08:47:00,67.1,65.4,29.85,NW,315,0.2,0.7,94,0.03,,,0.99,WUHU216HW,2013-09-20 13:47:00,
2013-09-20 08:52:00,67.1,65.4,29.86,WSW,248,1.6,1.6,94,0.02,,,0.99,WUHU216HW,2013-09-20 13:52:00,
2013-09-20 08:57:00,67.3,65.5,29.85,North,0,1.1,1.6,94,0.02,,,0.99,WUHU216HW,2013-09-20 13:57:00,
2013-09-20 09:02:00,67.3,65.5,29.85,NNW,346,1.5,3.6,94,0.02,,,0.99,WUHU216HW,2013-09-20 14:02:00,
2013-09-20 09:07:00,67.3,65.5,29.86,NW,320,1.6,3.6,94,0.02,,,0.99,WUHU216HW,2013-09-20 14:07:00,
2013-09-20 09:12:00,67.3,65.5,29.86,NNW,338,1.2,2.5,94,0.01,,,0.99,WUHU216HW,2013-09-20 14:12:00,
2013-09-20 09:17:00,67.3,65.5,29.86,North,0,1.3,2.5,94,0.01,,,0.99,WUHU216HW,2013-09-20 14:17:00,
2013-09-20 09:22:00,67.3,65.5,29.86,North,0,0.4,2.5,94,0.01,,,0.99,WUHU216HW,2013-09-20 14:22:00,
2013-09-20 09:27:00,67.5,65.7,29.86,NW,315,1.8,1.8,94,0.01,,,0.99,WUHU216HW,2013-09-20 14:27:00,
2013-09-20 09:32:00,67.3,65.5,29.86,SE,133,0.6,1.8,94,0.01,,,0.99,WUHU216HW,2013-09-20 14:32:00,
2013-09-20 09:37:00,67.3,65.5,29.85,North,0,1.1,1.8,94,0.00,,,0.99,WUHU216HW,2013-09-20 14:37:00,
2013-09-20 09:42:00,67.5,65.7,29.86,North,0,4.0,4.0,94,0.00,,,0.99,WUHU216HW,2013-09-20 14:42:00,
2013-09-20 09:47:00,67.3,65.5,29.86,WNW,303,2.0,4.0,94,0.00,,,0.99,WUHU216HW,2013-09-20 14:47:00,
2013-09-20 09:52:00,67.3,65.5,29.86,NW,315,2.9,2.9,94,0.00,,,0.99,WUHU216HW,2013-09-20 14:52:00,
2013-09-20 09:57:00,67.5,65.7,29.86,NW,315,1.8,2.9,94,0.00,,,0.99,WUHU216HW,2013-09-20 14:57:00,
2013-09-20 10:02:00,67.5,65.7,29.86,NNW,344,1.8,2.5,94,0.00,,,0.99,WUHU216HW,2013-09-20 15:02:00,
2013-09-20 10:07:00,67.5,65.7,29.86,North,0,0.9,2.5,94,0.00,,,0.99,WUHU216HW,2013-09-20 15:07:00,
2013-09-20 10:12:00,67.5,65.7,29.86,NNW,338,2.8,4.7,94,0.00,,,0.99,WUHU216HW,2013-09-20 15:12:00,
2013-09-20 10:17:00,67.3,65.5,29.87,WNW,293,3.1,4.7,94,0.00,,,0.99,WUHU216HW,2013-09-20 15:17:00,
2013-09-20 10:22:00,67.1,65.4,29.87,NW,315,1.1,3.1,94,0.00,,,0.99,WUHU216HW,2013-09-20 15:22:00,
2013-09-20 10:27:00,67.1,65.4,29.87,NW,315,3.1,3.1,94,0.00,,,0.99,WUHU216HW,2013-09-20 15:27:00,
2013-09-20 10:32:00,67.0,65.2,29.87,NNW,338,2.5,3.6,94,0.00,,,0.99,WUHU216HW,2013-09-20 15:32:00,
2013-09-20 10:37:00,66.8,65.0,29.87,North,2,1.1,3.6,94,0.00,,,0.99,WUHU216HW,2013-09-20 15:37:00,
2013-09-20 10:42:00,66.6,64.8,29.87,North,0,2.3,2.9,94,0.00,,,0.99,WUHU216HW,2013-09-20 15:42:00,
2013-09-20 10:47:00,66.6,64.8,29.87,North,0,0.9,2.9,94,0.00,,,0.99,WUHU216HW,2013-09-20 15:47:00,
2013-09-20 10:52:00,66.6,64.8,29.87,North,0,3.4,3.4,94,0.00,,,0.99,WUHU216HW,2013-09-20 15:52:00,
2013-09-20 10:57:00,66.2,64.5,29.87,SSW,203,2.5,3.4,94,0.00,,,0.99,WUHU216HW,2013-09-20 15:57:00,
2013-09-20 11:02:00,66.1,63.9,29.87,NNW,338,1.1,3.4,93,0.00,,,0.99,WUHU216HW,2013-09-20 16:02:00,
2013-09-20 11:07:00,65.9,63.7,29.87,NNW,338,1.1,3.4,93,0.00,,,0.99,WUHU216HW,2013-09-20 16:07:00,
2013-09-20 11:12:00,65.9,63.7,29.87,WNW,285,2.6,2.9,93,0.00,,,0.99,WUHU216HW,2013-09-20 16:12:00,
2013-09-20 11:17:00,65.7,63.6,29.88,WNW,293,2.5,2.9,93,0.00,,,0.99,WUHU216HW,2013-09-20 16:17:00,
2013-09-20 11:22:00,65.5,63.5,29.87,North,0,3.8,3.8,93,0.00,,,0.99,WUHU216HW,2013-09-20 16:22:00,
2013-09-20 11:27:00,65.5,63.5,29.87,North,0,2.1,3.8,93,0.00,,,0.99,WUHU216HW,2013-09-20 16:27:00,
2013-09-20 11:32:00,65.3,63.3,29.88,NW,318,1.3,4.9,93,0.00,,,0.99,WUHU216HW,2013-09-20 16:32:00,
2013-09-20 11:37:00,65.3,63.3,29.88,NW,315,2.5,4.9,93,0.00,,,0.99,WUHU216HW,2013-09-20 16:37:00,
2013-09-20 11:42:00,65.3,63.3,29.88,North,0,1.1,4.7,93,0.00,,,0.99,WUHU216HW,2013-09-20 16:42:00,
2013-09-20 11:47:00,65.5,63.5,29.88,NNW,338,2.5,3.6,93,0.00,,,0.99,WUHU216HW,2013-09-20 16:47:00,
2013-09-20 11:52:00,65.2,63.1,29.88,North,0,1.8,3.6,93,0.00,,,0.99,WUHU216HW,2013-09-20 16:52:00,
2013-09-20 11:57:00,65.2,63.1,29.88,NNW,338,1.3,2.7,93,0.00,,,0.99,WUHU216HW,2013-09-20 16:57:00,
2013-09-20 12:02:00,65.0,62.4,29.88,North,0,1.3,3.4,91,0.00,,,0.99,WUHU216HW,2013-09-20 17:02:00,
2013-09-20 12:07:00,65.0,62.7,29.88,NE,45,1.6,3.4,92,0.00,,,0.99,WUHU216HW,2013-09-20 17:07:00,
2013-09-20 12:12:00,65.0,62.4,29.88,NNE,18,0.6,2.2,91,0.00,,,0.99,WUHU216HW,2013-09-20 17:12:00,
2013-09-20 12:17:00,65.0,62.4,29.88,North,0,2.0,2.5,91,0.00,,,0.99,WUHU216HW,2013-09-20 17:17:00,
2013-09-20 12:22:00,64.8,61.9,29.88,WSW,240,1.7,2.5,90,0.00,,,0.99,WUHU216HW,2013-09-20 17:22:00,
2013-09-20 12:27:00,64.6,61.8,29.88,NNW,338,2.6,4.7,90,0.00,,,0.99,WUHU216HW,2013-09-20 17:27:00,
2013-09-20 12:32:00,64.6,61.8,29.88,North,0,1.7,4.7,90,0.00,,,0.99,WUHU216HW,2013-09-20 17:32:00,
2013-09-20 12:37:00,64.6,61.8,29.88,North,0,1.8,3.6,90,0.00,,,0.99,WUHU216HW,2013-09-20 17:37:00,
2013-09-20 12:42:00,64.8,61.9,29.88,North,0,1.3,3.6,90,0.00,,,0.99,WUHU216HW,2013-09-20 17:42:00,
2013-09-20 12:47:00,64.6,61.4,29.89,NNW,338,1.6,4.0,89,0.00,,,0.99,WUHU216HW,2013-09-20 17:47:00,
2013-09-20 12:52:00,64.4,61.2,29.89,NNE,23,3.4,4.0,89,0.00,,,0.99,WUHU216HW,2013-09-20 17:52:00,
2013-09-20 12:57:00,64.4,60.6,29.88,NNE,23,2.3,3.4,87,0.00,,,0.99,WUHU216HW,2013-09-20 17:57:00,
2013-09-20 13:02:00,64.6,61.4,29.88,NNE,17,2.3,3.4,89,0.00,,,0.99,WUHU216HW,2013-09-20 18:02:00,
2013-09-20 13:07:00,64.6,60.7,29.89,NNE,21,1.9,3.4,87,0.00,,,0.99,WUHU216HW,2013-09-20 18:07:00,
2013-09-20 13:12:00,64.8,60.8,29.89,NNE,32,1.5,2.5,87,0.00,,,0.99,WUHU216HW,2013-09-20 18:12:00,
2013-09-20 13:17:00,65.0,61.0,29.88,North,0,2.2,2.2,87,0.00,,,0.99,WUHU216HW,2013-09-20 18:17:00,
2013-09-20 13:22:00,65.0,61.0,29.88,NE,45,1.1,2.2,87,0.00,,,0.99,WUHU216HW,2013-09-20 18:22:00,
2013-09-20 13:27:00,65.3,61.8,29.88,North,5,2.8,4.0,88,0.00,,,0.99,WUHU216HW,2013-09-20 18:27:00,
2013-09-20 13:32:00,65.9,62.2,29.88,SW,225,1.6,4.0,88,0.00,,,0.99,WUHU216HW,2013-09-20 18:32:00,
2013-09-20 13:37:00,65.9,61.8,29.88,NE,39,2.3,2.5,87,0.00,,,0.99,WUHU216HW,2013-09-20 18:37:00,
2013-09-20 13:42:00,66.1,61.8,29.88,NW,315,1.8,2.5,86,0.00,,,0.99,WUHU216HW,2013-09-20 18:42:00,
2013-09-20 13:47:00,65.9,61.6,29.88,NNW,334,1.1,2.5,86,0.00,,,0.99,WUHU216HW,2013-09-20 18:47:00,
2013-09-20 13:52:00,65.7,61.8,29.88,NNE,23,1.3,1.6,87,0.00,,,0.99,WUHU216HW,2013-09-20 18:52:00,
2013-09-20 13:57:00,65.7,61.8,29.87,NNW,338,0.6,1.6,87,0.00,,,0.99,WUHU216HW,2013-09-20 18:57:00,
2013-09-20 14:02:00,65.5,61.6,29.87,North,0,0.4,1.8,87,0.00,,,0.99,WUHU216HW,2013-09-20 19:02:00,
2013-09-20 14:07:00,65.5,61.2,29.87,NNE,23,0.6,3.4,86,0.00,,,0.99,WUHU216HW,2013-09-20 19:07:00,
2013-09-20 14:12:00,65.5,61.2,29.87,NNE,17,3.0,4.5,86,0.00,,,0.99,WUHU216HW,2013-09-20 19:12:00,
2013-09-20 14:17:00,65.7,61.4,29.86,North,0,0.6,4.5,86,0.00,,,0.99,WUHU216HW,2013-09-20 19:17:00,
2013-09-20 14:22:00,65.9,61.6,29.87,NW,315,0.7,4.0,86,0.00,,,0.99,WUHU216HW,2013-09-20 19:22:00,
2013-09-20 14:27:00,66.2,60.9,29.86,North,0,2.5,4.0,83,0.00,,,0.99,WUHU216HW,2013-09-20 19:27:00,
2013-09-20 14:32:00,66.2,60.9,29.86,NNE,23,0.3,2.5,83,0.00,,,0.99,WUHU216HW,2013-09-20 19:32:00,
2013-09-20 14:37:00,66.2,60.3,29.86,NNW,341,2.2,2.7,81,0.00,,,0.99,WUHU216HW,2013-09-20 19:37:00,
2013-09-20 14:42:00,66.2,59.9,29.86,NE,45,3.1,3.1,80,0.00,,,0.99,WUHU216HW,2013-09-20 19:42:00,
2013-09-20 14:47:00,66.4,59.4,29.86,North,355,1.6,3.1,78,0.00,,,0.99,WUHU216HW,2013-09-20 19:47:00,
2013-09-20 14:52:00,66.6,59.1,29.86,NNW,346,1.6,3.4,77,0.00,,,0.99,WUHU216HW,2013-09-20 19:52:00,
2013-09-20 14:57:00,66.6,60.0,29.86,NE,40,1.7,3.4,79,0.00,,,0.99,WUHU216HW,2013-09-20 19:57:00,
2013-09-20 15:02:00,66.6,60.0,29.85,NNW,338,1.1,3.4,79,0.00,,,0.99,WUHU216HW,2013-09-20 20:02:00,
2013-09-20 15:07:00,66.6,60.3,29.86,NNW,338,1.3,3.4,80,0.00,,,0.99,WUHU216HW,2013-09-20 20:07:00,
2013-09-20 15:12:00,66.6,60.3,29.86,North,0,0.9,3.4,80,0.00,,,0.99,WUHU216HW,2013-09-20 20:12:00,
2013-09-20 15:17:00,66.8,60.5,29.85,North,0,0.4,1.8,80,0.00,,,0.99,WUHU216HW,2013-09-20 20:17:00,
2013-09-20 15:22:00,66.8,60.1,29.85,NNE,23,1.1,2.5,79,0.00,,,0.99,WUHU216HW,2013-09-20 20:22:00,
2013-09-20 15:27:00,66.8,60.1,29.86,WSW,248,0.4,2.5,79,0.00,,,0.99,WUHU216HW,2013-09-20 20:27:00,
2013-09-20 15:32:00,67.0,60.3,29.85,NNW,338,1.3,2.0,79,0.00,,,0.99,WUHU216HW,2013-09-20 20:32:00,
2013-09-20 15:37:00,67.0,59.5,29.85,North,0,1.8,2.0,77,0.00,,,0.99,WUHU216HW,2013-09-20 20:37:00,
2013-09-20 15:42:00,67.1,59.7,29.85,NNW,338,1.4,1.8,77,0.00,,,0.99,WUHU216HW,2013-09-20 20:42:00,
2013-09-20 15:47:00,67.3,59.9,29.85,North,358,2.7,2.9,77,0.00,,,0.99,WUHU216HW,2013-09-20 20:47:00,
2013-09-20 15:52:00,67.1,59.7,29.85,NNW,338,3.4,3.6,77,0.00,,,0.99,WUHU216HW,2013-09-20 20:52:00,
2013-09-20 15:57:00,67.0,58.8,29.85,NNE,30,1.8,3.6,75,0.00,,,0.99,WUHU216HW,2013-09-20 20:57:00,
2013-09-20 16:02:00,66.8,59.3,29.85,North,0,1.3,3.4,77,0.00,,,0.99,WUHU216HW,2013-09-20 21:02:00,
2013-09-20 16:07:00,66.8,59.3,29.85,North,0,1.5,2.7,77,0.00,,,0.99,WUHU216HW,2013-09-20 21:07:00,
2013-09-20 16:12:00,66.8,59.3,29.85,SSW,203,1.6,2.7,77,0.00,,,0.99,WUHU216HW,2013-09-20 21:12:00,
2013-09-20 16:17:00,67.0,58.8,29.85,NNW,338,2.5,2.5,75,0.00,,,0.99,WUHU216HW,2013-09-20 21:17:00,
2013-09-20 16:22:00,67.0,58.1,29.85,North,0,2.0,5.1,73,0.00,,,0.99,WUHU216HW,2013-09-20 21:22:00,
2013-09-20 16:27:00,66.8,58.6,29.85,ENE,68,1.8,5.1,75,0.00,,,0.99,WUHU216HW,2013-09-20 21:27:00,
2013-09-20 16:32:00,66.6,58.8,29.85,NNW,338,1.8,2.0,76,0.00,,,0.99,WUHU216HW,2013-09-20 21:32:00,
2013-09-20 16:37:00,66.6,58.8,29.84,NW,320,1.5,2.2,76,0.00,,,0.99,WUHU216HW,2013-09-20 21:37:00,
2013-09-20 16:42:00,66.6,59.1,29.85,North,0,1.8,2.2,77,0.00,,,0.99,WUHU216HW,2013-09-20 21:42:00,
2013-09-20 16:47:00,66.6,58.8,29.84,NNE,23,1.1,1.8,76,0.00,,,0.99,WUHU216HW,2013-09-20 21:47:00,
2013-09-20 16:52:00,66.6,58.8,29.84,NNE,23,1.3,2.2,76,0.00,,,0.99,WUHU216HW,2013-09-20 21:52:00,
2013-09-20 16:57:00,66.6,58.8,29.84,NNW,338,1.3,2.2,76,0.00,,,0.99,WUHU216HW,2013-09-20 21:57:00,
2013-09-20 17:02:00,66.8,58.6,29.84,North,353,2.8,3.1,75,0.00,,,0.99,WUHU216HW,2013-09-20 22:02:00,
2013-09-20 17:07:00,66.6,58.1,29.84,North,0,1.8,3.1,74,0.00,,,0.99,WUHU216HW,2013-09-20 22:07:00,
2013-09-20 17:12:00,66.8,59.3,29.84,NNW,340,1.0,1.8,77,0.00,,,0.99,WUHU216HW,2013-09-20 22:12:00,
2013-09-20 17:17:00,67.0,59.5,29.84,North,0,2.5,2.5,77,0.00,,,0.99,WUHU216HW,2013-09-20 22:17:00,
2013-09-20 17:22:00,67.1,59.7,29.84,North,0,1.6,2.5,77,0.00,,,0.99,WUHU216HW,2013-09-20 22:22:00,
2013-09-20 17:27:00,67.1,59.7,29.83,NNE,23,1.6,1.6,77,0.00,,,0.99,WUHU216HW,2013-09-20 22:27:00,
2013-09-20 17:32:00,67.0,58.4,29.83,NNE,23,1.8,2.0,74,0.00,,,0.99,WUHU216HW,2013-09-20 22:32:00,
2013-09-20 17:37:00,66.8,59.3,29.83,ENE,62,0.8,2.0,77,0.00,,,0.99,WUHU216HW,2013-09-20 22:37:00,
2013-09-20 17:42:00,66.6,59.1,29.83,North,0,1.1,1.8,77,0.00,,,0.99,WUHU216HW,2013-09-20 22:42:00,
2013-09-20 17:47:00,66.6,59.1,29.83,North,0,1.2,2.0,77,0.00,,,0.99,WUHU216HW,2013-09-20 22:47:00,
2013-09-20 17:52:00,66.4,59.4,29.83,North,0,0.9,2.0,78,0.00,,,0.99,WUHU216HW,2013-09-20 22:52:00,
2013-09-20 17:57:00,66.6,59.6,29.83,NNW,345,0.8,2.5,78,0.00,,,0.99,WUHU216HW,2013-09-20 22:57:00,
2013-09-20 18:02:00,66.2,59.2,29.83,West,277,0.6,2.5,78,0.00,,,0.99,WUHU216HW,2013-09-20 23:02:00,
2013-09-20 18:07:00,66.2,59.6,29.83,North,0,0.4,1.1,79,0.00,,,0.99,WUHU216HW,2013-09-20 23:07:00,
2013-09-20 18:12:00,66.2,59.6,29.83,NE,45,0.7,1.1,79,0.00,,,0.99,WUHU216HW,2013-09-20 23:12:00,
2013-09-20 18:17:00,66.2,59.9,29.83,North,0,0.9,0.9,80,0.00,,,0.99,WUHU216HW,2013-09-20 23:17:00,
2013-09-20 18:22:00,65.9,59.6,29.83,North,0,0.4,0.9,80,0.00,,,0.99,WUHU216HW,2013-09-20 23:22:00,
2013-09-20 18:27:00,65.9,59.6,29.83,North,0,0.3,0.9,80,0.00,,,0.99,WUHU216HW,2013-09-20 23:27:00,
2013-09-20 18:32:00,65.9,59.6,29.83,NNW,338,0.0,0.9,80,0.00,,,0.99,WUHU216HW,2013-09-20 23:32:00,
2013-09-20 18:37:00,65.7,59.8,29.83,North,0,0.4,0.4,81,0.00,,,0.99,WUHU216HW,2013-09-20 23:37:00,
2013-09-20 18:42:00,65.7,59.8,29.83,North,0,0.4,0.4,81,0.00,,,0.99,WUHU216HW,2013-09-20 23:42:00,
2013-09-20 18:47:00,65.5,59.9,29.83,NNW,338,0.0,0.4,82,0.00,,,0.99,WUHU216HW,2013-09-20 23:47:00,
2013-09-20 18:52:00,65.3,59.0,29.83,North,0,0.0,0.4,80,0.00,,,0.99,WUHU216HW,2013-09-20 23:52:00,
2013-09-20 18:57:00,65.2,59.5,29.83,NNW,338,0.4,0.4,82,0.00,,,0.99,WUHU216HW,2013-09-20 23:57:00,
2013-09-20 19:02:00,65.0,59.3,29.83,NW,315,0.2,0.4,82,0.00,,,0.99,WUHU216HW,2013-09-21 00:02:00,
2013-09-20 19:07:00,64.6,59.1,29.83,North,0,0.2,0.9,82,0.00,,,0.99,WUHU216HW,2013-09-21 00:07:00,
2013-09-20 19:12:00,64.4,58.9,29.83,North,0,0.0,0.9,82,0.00,,,0.99,WUHU216HW,2013-09-21 00:12:00,
2013-09-20 19:17:00,64.4,58.9,29.83,North,0,0.0,0.0,82,0.00,,,0.99,WUHU216HW,2013-09-21 00:17:00,
2013-09-20 19:22:00,64.1,58.5,29.83,North,0,0.0,0.0,82,0.00,,,0.99,WUHU216HW,2013-09-21 00:22:00,
2013-09-20 19:27:00,63.9,58.6,29.83,North,0,0.3,0.4,83,0.00,,,0.99,WUHU216HW,2013-09-21 00:27:00,
2013-09-20 19:32:00,63.7,58.4,29.83,North,0,0.0,0.4,83,0.00,,,0.99,WUHU216HW,2013-09-21 00:32:00,
2013-09-20 19:37:00,63.5,58.2,29.84,North,0,0.0,0.4,83,0.00,,,0.99,WUHU216HW,2013-09-21 00:37:00,
2013-09-20 19:42:00,63.4,58.1,29.84,North,0,0.2,0.4,83,0.00,,,0.99,WUHU216HW,2013-09-21 00:42:00,
2013-09-20 19:47:00,63.2,57.9,29.83,NNW,338,0.0,0.4,83,0.00,,,0.99,WUHU216HW,2013-09-21 00:47:00,
2013-09-20 19:52:00,63.0,57.7,29.84,North,0,0.1,1.1,83,0.00,,,0.99,WUHU216HW,2013-09-21 00:52:00,
2013-09-20 19:57:00,63.0,58.1,29.84,North,0,0.2,1.1,84,0.00,,,0.99,WUHU216HW,2013-09-21 00:57:00,
2013-09-20 20:02:00,62.8,57.9,29.84,North,0,0.4,0.4,84,0.00,,,0.99,WUHU216HW,2013-09-21 01:02:00,
2013-09-20 20:07:00,62.6,57.7,29.84,NNW,338,0.4,0.4,84,0.00,,,0.99,WUHU216HW,2013-09-21 01:07:00,
2013-09-20 20:12:00,62.5,57.5,29.85,NNW,338,0.3,0.4,84,0.00,,,0.99,WUHU216HW,2013-09-21 01:12:00,
2013-09-20 20:17:00,62.5,57.5,29.84,NNE,23,0.2,0.4,84,0.00,,,0.99,WUHU216HW,2013-09-21 01:17:00,
2013-09-20 20:22:00,62.3,57.7,29.85,NNE,23,0.4,0.7,85,0.00,,,0.99,WUHU216HW,2013-09-21 01:22:00,
2013-09-20 20:27:00,62.3,57.3,29.85,North,0,0.6,1.1,84,0.00,,,0.99,WUHU216HW,2013-09-21 01:27:00,
2013-09-20 20:32:00,62.1,57.3,29.85,North,0,0.7,1.1,84,0.00,,,0.99,WUHU216HW,2013-09-21 01:32:00,
2013-09-20 20:37:00,62.1,57.3,29.85,North,0,0.0,0.7,84,0.00,,,0.99,WUHU216HW,2013-09-21 01:37:00,
2013-09-20 20:42:00,61.9,57.3,29.85,North,0,0.4,0.4,85,0.00,,,0.99,WUHU216HW,2013-09-21 01:42:00,
2013-09-20 20:47:00,61.9,57.3,29.85,NNW,338,0.4,0.9,85,0.00,,,0.99,WUHU216HW,2013-09-21 01:47:00,
2013-09-20 20:52:00,61.7,56.9,29.85,NNW,338,0.2,0.9,84,0.00,,,0.99,WUHU216HW,2013-09-21 01:52:00,
2013-09-20 20:57:00,61.6,56.7,29.85,North,0,0.9,0.9,84,0.00,,,0.99,WUHU216HW,2013-09-21 01:57:00,
2013-09-20 21:02:00,61.6,56.7,29.85,NNE,23,0.9,0.9,84,0.00,,,0.99,WUHU216HW,2013-09-21 02:02:00,
2013-09-20 21:07:00,61.6,56.7,29.85,North,0,1.3,1.3,84,0.00,,,0.99,WUHU216HW,2013-09-21 02:07:00,
2013-09-20 21:12:00,61.6,56.7,29.85,NE,45,1.8,1.8,84,0.00,,,0.99,WUHU216HW,2013-09-21 02:12:00,
2013-09-20 21:17:00,61.4,56.2,29.85,North,0,0.4,1.8,83,0.00,,,0.99,WUHU216HW,2013-09-21 02:17:00,
2013-09-20 21:22:00,61.2,56.1,29.86,North,0,1.1,1.6,83,0.00,,,0.99,WUHU216HW,2013-09-21 02:22:00,
2013-09-20 21:27:00,61.2,56.1,29.86,NW,315,0.4,1.6,83,0.00,,,0.99,WUHU216HW,2013-09-21 02:27:00,
2013-09-20 21:32:00,61.0,55.9,29.86,NNW,346,0.6,0.7,83,0.00,,,0.99,WUHU216HW,2013-09-21 02:32:00,
2013-09-20 21:37:00,60.8,55.7,29.86,NNW,338,0.2,0.7,83,0.00,,,0.99,WUHU216HW,2013-09-21 02:37:00,
2013-09-20 21:42:00,60.8,55.7,29.86,NW,316,0.6,0.7,83,0.00,,,0.99,WUHU216HW,2013-09-21 02:42:00,
2013-09-20 21:47:00,60.7,55.5,29.86,North,0,0.9,0.9,83,0.00,,,0.99,WUHU216HW,2013-09-21 02:47:00,
2013-09-20 21:52:00,60.5,55.4,29.86,North,1,0.6,2.0,83,0.00,,,0.99,WUHU216HW,2013-09-21 02:52:00,
2013-09-20 21:57:00,60.3,55.2,29.86,North,0,0.9,2.9,83,0.00,,,0.99,WUHU216HW,2013-09-21 02:57:00,
2013-09-20 22:02:00,60.1,55.0,29.86,North,0,0.7,2.9,83,0.00,,,0.99,WUHU216HW,2013-09-21 03:02:00,
2013-09-20 22:07:00,60.1,55.0,29.86,NNE,16,0.6,1.8,83,0.00,,,0.99,WUHU216HW,2013-09-21 03:07:00,
2013-09-20 22:12:00,59.9,55.1,29.87,North,0,1.2,1.3,84,0.00,,,0.99,WUHU216HW,2013-09-21 03:12:00,
2013-09-20 22:17:00,59.8,54.9,29.87,North,0,0.9,1.8,84,0.00,,,0.99,WUHU216HW,2013-09-21 03:17:00,
2013-09-20 22:22:00,59.6,54.7,29.87,NNE,23,2.0,2.0,84,0.00,,,0.99,WUHU216HW,2013-09-21 03:22:00,
2013-09-20 22:27:00,59.4,54.5,29.87,North,0,0.8,2.0,84,0.00,,,0.99,WUHU216HW,2013-09-21 03:27:00,
2013-09-20 22:32:00,59.2,54.7,29.87,NNE,23,0.4,1.3,85,0.00,,,0.99,WUHU216HW,2013-09-21 03:32:00,
2013-09-20 22:37:00,59.0,54.5,29.87,North,0,0.7,1.1,85,0.00,,,0.99,WUHU216HW,2013-09-21 03:37:00,
2013-09-20 22:42:00,58.9,54.4,29.87,NNE,23,1.1,1.1,85,0.00,,,0.99,WUHU216HW,2013-09-21 03:42:00,
2013-09-20 22:47:00,58.7,54.2,29.87,North,0,0.2,1.1,85,0.00,,,0.99,WUHU216HW,2013-09-21 03:47:00,
2013-09-20 22:52:00,58.7,54.6,29.87,NNE,23,0.0,0.7,86,0.00,,,0.99,WUHU216HW,2013-09-21 03:52:00,
2013-09-20 22:57:00,58.5,54.4,29.87,NNE,23,0.3,0.7,86,0.00,,,0.99,WUHU216HW,2013-09-21 03:57:00,
2013-09-20 23:01:00,58.3,54.2,29.87,NNE,23,0.0,0.4,86,0.00,,,0.99,WUHU216HW,2013-09-21 04:01:00,
2013-09-20 23:02:00,58.1,54.0,29.87,NNE,23,0.4,0.4,86,0.00,,,0.99,WUHU216HW,2013-09-21 04:02:00,
2013-09-20 23:07:00,58.0,53.8,29.87,North,0,0.2,0.4,86,0.00,,,0.99,WUHU216HW,2013-09-21 04:07:00,
2013-09-20 23:12:00,58.0,54.1,29.87,North,0,0.6,0.9,87,0.00,,,0.99,WUHU216HW,2013-09-21 04:12:00,
2013-09-20 23:17:00,57.8,53.9,29.87,North,0,0.9,0.9,87,0.00,,,0.99,WUHU216HW,2013-09-21 04:17:00,
2013-09-20 23:22:00,57.6,53.7,29.86,NNW,338,0.7,0.9,87,0.00,,,0.99,WUHU216HW,2013-09-21 04:22:00,
2013-09-20 23:27:00,57.4,53.6,29.87,North,6,0.8,1.1,87,0.00,,,0.99,WUHU216HW,2013-09-21 04:27:00,
2013-09-20 23:32:00,57.2,53.1,29.86,North,0,0.8,1.1,86,0.00,,,0.99,WUHU216HW,2013-09-21 04:32:00,
2013-09-20 23:37:00,57.2,53.1,29.86,NNE,23,0.4,1.1,86,0.00,,,0.99,WUHU216HW,2013-09-21 04:37:00,
2013-09-20 23:42:00,57.2,53.1,29.87,North,0,0.6,1.3,86,0.00,,,0.99,WUHU216HW,2013-09-21 04:42:00,
2013-09-20 23:47:00,57.1,52.9,29.86,North,0,0.4,1.3,86,0.00,,,0.99,WUHU216HW,2013-09-21 04:47:00,
2013-09-20 23:52:00,56.9,52.8,29.87,North,0,0.2,0.4,86,0.00,,,0.99,WUHU216HW,2013-09-21 04:52:00,
2013-09-20 23:57:00,56.9,52.8,29.86,NNE,23,0.3,0.4,86,0.00,,,0.99,WUHU216HW,2013-09-21 04:57:00,